Location: Ostrava
(49.8330°N, 18.2830°E)
Time: 05:04:03
(UTC+02:00)

Explorer 7 - Visible Passes

Search period start: 24 June 2018 00:00
Search period end: 04 July 2018 00:00
Orbit: 485 x 682 km, 50.3° (Epoch: 23 June)

Date Brightness Start Highest point End Pass type
(mag) Time Alt. Az. Time Alt. Az. Time Alt. Az.
24 Jun 8.7 02:12:54 14° SSE 02:13:38 14° SE 02:15:49 10° ESE visible
24 Jun 7.1 03:49:36 10° SW 03:53:27 52° SSE 03:57:30 10° E visible
25 Jun 8.2 02:17:44 19° SSE 02:18:45 21° SE 02:21:49 10° E visible
25 Jun 6.8 03:54:52 10° WSW 03:58:46 68° SSE 04:02:55 10° ENE visible
26 Jun 7.7 02:22:33 24° S 02:23:55 30° SSE 02:27:29 10° E visible
27 Jun 7.2 02:27:19 24° SSW 02:29:10 42° SSE 02:33:00 10° E visible
28 Jun 8.7 00:55:42 15° ESE 00:55:42 15° ESE 00:57:02 10° E visible
28 Jun 6.8 02:32:01 20° SW 02:34:28 57° SSE 02:38:26 10° E visible
29 Jun 8.1 01:00:22 23° SE 01:00:22 23° SE 01:02:53 10° E visible
29 Jun 6.6 02:36:40 15° WSW 02:39:48 74° SSE 02:43:51 10° E visible
30 Jun 7.3 01:04:57 34° SSE 01:04:57 34° SSE 01:08:30 10° E visible
30 Jun 6.6 02:41:20 10° WSW 02:45:11 87° S 02:49:16 10° E visible
01 Jul 6.8 01:09:26 40° S 01:10:12 47° SSE 01:13:59 10° E visible
01 Jul 6.7 02:46:44 10° W 02:50:36 85° N 02:54:40 10° E visible
01 Jul 8.7 23:37:29 13° ESE 23:37:29 13° ESE 23:38:14 10° E visible
02 Jul 6.5 01:13:46 29° SW 01:15:30 63° SSE 01:19:24 10° E visible
02 Jul 6.7 02:52:09 10° W 02:56:01 82° N 03:00:05 10° E visible
02 Jul 7.8 23:41:34 24° ESE 23:41:34 24° ESE 23:43:59 10° E visible
03 Jul 6.5 01:17:50 15° WSW 01:20:52 79° SSE 01:24:48 10° E visible
03 Jul 6.7 02:57:33 10° W 03:01:26 85° N 03:05:31 10° E visible
03 Jul 7.0 23:45:02 32° S 23:45:57 38° SSE 23:49:32 10° E visible
